User: anonymous   Login
Location: Bletchingley
(51.2333°N, 0.1000°W)
Time: 05:50:37
(UTC+00:00)
Language:

Cosmos 2016 Rocket - Orbit

View from above orbital plane
View from above orbital plane
View from above satellite
View from above satellite

Ground track
Ground track

The orbit data is extracted from the following two-line orbital elements,

1 19922U 89028B   20338.39527008  .00000088  00000-0  73880-4 0  9996
2 19922  82.9602 208.1905 0035564 303.0960  56.6785 13.77226587591124
Epoch (UTC): 03 December 2020 09:29:11
Eccentricity: 0.0035564
inclination: 82.9602°
perigee height: 947 km
apogee height: 1000 km
right ascension of ascending node: 208.1905°
argument of perigee: 303.0960°
revolutions per day: 13.77226587
mean anomaly at epoch: 56.6785°
orbit number at epoch: 59112

The dashed part of the orbit path shows where the satellite is in the earth's shadow,  

DLR